Date,TemperatureHighF,TemperatureAvgF,TemperatureLowF,DewpointHighF,DewpointAvgF,DewpointLowF,HumidityHigh,HumidityAvg,HumidityLow,PressureMaxIn,PressureMinIn,WindSpeedMaxMPH,WindSpeedAvgMPH,GustSpeedMaxMPH,PrecipitationSumIn
2013-1-1,52.0,40.2,33.6,37.4,32.9,28.4,98,76,45,30.36,30.24,6,0,6,0.00
2013-1-2,52.9,39.1,28.6,41.0,31.4,24.8,96,75,47,30.33,30.18,4,0,4,0.00
2013-1-3,53.4,39.8,29.3,41.0,33.4,26.6,98,80,52,30.36,30.21,4,0,4,0.00
2013-1-4,53.2,39.8,30.4,42.8,35.4,26.6,98,85,58,30.36,30.24,5,0,6,0.00
2013-1-5,53.8,42.8,33.1,44.6,40.1,33.8,98,89,66,30.33,30.12,6,1,8,0.49
2013-1-6,53.1,45.8,38.1,48.2,43.9,37.4,98,92,72,30.24,30.12,4,1,5,0.34
2013-1-7,52.9,42.5,35.6,48.2,40.4,35.6,98,91,66,30.33,30.18,5,1,7,0.00
2013-1-8,54.5,44.7,35.2,48.2,41.4,35.6,98,87,67,30.33,30.12,3,0,4,0.00
2013-1-9,48.7,39.7,37.6,46.4,39.9,37.4,98,98,90,30.15,30.12,3,0,5,0.00
2013-1-10,50.9,39.2,30.4,41.0,32.1,26.6,98,77,42,30.21,30.07,5,1,9,0.00
2013-1-11,50.5,37.8,27.3,37.4,29.1,23.0,96,73,49,30.30,30.18,3,0,4,0.00
2013-1-12,47.3,36.2,30.9,33.8,28.0,17.6,87,73,37,30.30,30.12,6,0,6,0.00
2013-1-13,45.0,35.5,24.6,30.2,22.8,19.4,91,62,41,30.33,30.18,7,1,9,0.00
2013-1-14,49.1,38.7,28.9,24.8,20.0,12.2,70,47,30,30.48,30.24,9,1,10,0.00
2013-1-15,50.5,38.3,29.1,33.8,27.6,23.0,83,67,47,30.57,30.42,4,0,4,0.00
2013-1-16,55.8,39.6,28.2,39.2,30.5,24.8,95,72,45,30.51,30.30,3,0,4,0.00
2013-1-17,57.6,40.6,28.6,41.0,31.2,24.8,95,72,42,30.33,30.21,4,0,4,0.00
2013-1-18,60.4,42.2,28.9,42.8,31.5,26.6,97,69,37,30.33,30.18,3,0,4,0.00
2013-1-19,60.4,43.6,30.0,41.0,33.0,26.6,96,71,37,30.36,30.21,4,0,5,0.00
2013-1-20,61.5,36.3,29.5,41.0,30.1,26.6,96,81,35,30.30,30.18,4,0,5,0.00
2013-1-21,60.6,43.2,31.3,42.8,34.7,26.6,97,73,46,30.27,30.15,4,0,4,0.00
2013-1-22,61.5,45.8,33.1,44.6,38.1,32.0,97,76,48,30.21,30.07,4,0,6,0.00
2013-1-23,57.9,49.1,43.7,50.0,44.8,39.2,97,84,58,30.15,30.01,6,1,10,0.08
2013-1-24,56.3,51.2,48.2,53.6,50.4,48.2,98,95,84,30.27,30.09,4,1,6,0.04
2013-1-25,65.8,56.2,50.5,59.0,53.7,50.0,98,90,67,30.27,30.07,5,1,6,0.00
2013-1-26,62.4,52.0,43.9,53.6,45.9,37.4,98,81,45,30.09,29.95,9,2,13,0.00
2013-1-27,56.8,45.5,34.3,42.8,34.5,28.4,97,66,43,30.21,30.07,7,1,8,0.00
2013-1-28,57.7,45.0,32.5,42.8,33.7,30.2,94,66,41,30.30,30.18,10,1,11,0.00
2013-1-29,60.6,46.9,36.7,42.8,36.7,32.0,95,70,40,30.39,30.27,8,1,12,0.00
2013-1-30,63.7,47.4,36.1,44.6,38.8,33.8,93,73,47,30.42,30.30,4,0,7,0.00
2013-1-31,66.0,48.9,35.2,48.2,41.0,33.8,97,76,47,30.36,30.21,4,0,5,0.00
2013-2-1,66.2,49.4,35.4,48.2,42.3,35.6,98,78,46,30.27,30.15,3,0,5,0.00
2013-2-2,65.7,49.4,41.0,50.0,43.0,41.0,96,80,45,30.33,30.24,4,0,5,0.00
2013-2-3,65.5,47.1,37.9,51.8,42.4,37.4,98,84,49,30.30,30.15,5,0,8,0.00
2013-2-4,63.7,49.0,37.6,51.8,43.9,37.4,98,83,54,30.21,30.07,5,0,6,0.00
2013-2-5,62.1,49.6,36.9,50.0,44.0,37.4,98,81,53,30.15,30.07,8,1,8,0.00
2013-2-6,62.8,47.5,38.7,50.0,41.1,37.4,98,80,45,30.24,30.12,6,1,7,0.00
2013-2-7,59.5,44.1,38.1,48.2,38.7,32.0,98,82,39,30.21,30.01,8,2,10,0.00
2013-2-8,59.7,46.7,35.4,42.8,33.9,26.6,98,64,35,30.07,29.95,6,2,10,0.00
2013-2-9,62.1,45.3,32.4,33.8,28.1,24.8,75,51,34,30.15,30.01,6,1,6,0.00
2013-2-10,64.8,46.6,36.1,39.2,32.9,26.6,77,60,37,30.18,30.03,5,0,7,0.00
2013-2-11,63.0,46.7,32.4,39.2,33.5,28.4,91,62,37,30.30,30.09,5,0,6,0.00
2013-2-12,64.8,48.1,33.6,41.0,34.0,28.4,90,59,38,30.45,30.27,6,0,6,0.00
2013-2-13,67.5,50.9,35.6,42.8,36.7,30.2,90,59,40,30.39,30.24,4,0,5,0.00
2013-2-14,69.6,47.0,36.3,46.4,38.1,33.8,94,73,37,30.30,30.18,7,0,7,0.00
2013-2-15,72.3,53.6,38.5,48.2,41.6,37.4,96,67,39,30.33,30.24,5,0,6,0.00
2013-2-16,71.6,53.6,40.5,48.2,41.2,37.4,94,66,37,30.30,30.07,4,0,4,0.00
2013-2-17,69.1,52.2,36.7,48.2,39.1,30.2,98,64,34,30.09,29.98,6,1,7,0.00
2013-2-18,61.9,48.8,36.3,46.4,39.0,33.8,95,70,46,30.07,29.95,8,2,13,0.00
2013-2-19,54.1,44.1,37.8,46.4,39.1,35.6,94,81,62,29.98,29.77,8,2,12,0.00
2013-2-20,63.7,46.3,32.7,42.8,33.5,26.6,98,65,32,30.07,29.86,7,2,10,0.00
2013-2-21,64.0,48.0,35.6,41.0,33.5,23.0,93,60,30,30.21,30.07,6,1,10,0.00
2013-2-22,66.9,50.6,34.0,42.8,36.0,28.4,86,59,35,30.30,30.18,5,1,6,0.00
2013-2-23,62.6,52.2,42.4,42.8,32.5,23.0,95,52,24,30.27,30.18,10,2,13,0.00
2013-2-24,68.0,51.0,39.6,32.0,21.9,-9.4,56,37,4,30.30,30.18,8,2,8,0.00
2013-2-25,67.3,50.9,35.1,42.8,34.4,26.6,82,54,34,30.33,30.18,6,1,11,0.00
2013-2-26,68.4,53.4,39.2,33.8,21.0,-11.2,71,36,4,30.27,30.12,9,2,11,0.00
2013-2-27,72.5,47.6,35.4,41.0,30.9,24.8,77,53,28,30.42,30.24,4,0,5,0.00
2013-2-28,75.0,58.1,41.4,51.8,40.9,33.8,85,55,31,30.48,30.39,6,1,10,0.00
2013-3-1,78.1,58.2,41.2,51.8,44.8,39.2,95,64,34,30.45,30.27,4,0,6,0.00
2013-3-2,75.9,60.9,46.8,53.6,47.9,42.8,88,64,41,30.30,30.07,5,0,5,0.00
2013-3-3,71.4,60.7,53.2,53.6,49.3,46.4,83,66,45,30.09,30.01,8,1,8,0.00
2013-3-4,69.1,47.9,43.0,51.8,44.2,41.0,97,86,48,30.18,30.07,8,0,9,0.00
2013-3-5,66.0,53.3,43.2,46.4,41.3,37.4,91,65,38,30.09,29.89,10,2,13,0.00
2013-3-6,63.1,53.4,45.5,48.2,41.2,33.8,93,64,40,30.12,29.89,8,2,9,0.00
2013-3-7,66.7,51.5,39.2,44.6,39.2,33.8,95,66,37,30.03,29.89,7,1,8,0.00
2013-3-8,68.7,52.7,39.4,42.8,39.5,35.6,93,64,33,30.07,29.83,12,2,16,0.00
2013-3-9,73.8,55.3,38.8,46.4,31.8,-20.2,97,52,2,30.33,30.07,7,1,11,0.00
2013-3-10,72.0,55.4,39.6,48.2,38.5,26.6,87,55,34,30.42,30.27,5,1,6,0.00
2013-3-11,76.3,58.5,41.5,50.0,42.8,37.4,93,59,32,30.30,30.12,6,0,6,0.00
2013-3-12,81.0,61.9,43.9,51.8,46.0,41.0,94,60,33,30.21,30.07,5,1,7,0.00
2013-3-13,83.7,63.7,46.0,55.4,49.0,44.6,95,62,32,30.21,30.07,5,0,6,0.00
2013-3-14,83.8,67.0,49.1,57.2,50.9,44.6,93,58,37,30.18,30.07,6,1,6,0.00
2013-3-15,79.7,62.0,47.8,53.6,48.2,42.8,91,63,33,30.18,30.01,6,1,8,0.00
2013-3-16,82.4,62.4,45.5,51.8,46.0,37.4,95,60,21,30.09,30.01,8,1,8,0.00
2013-3-17,75.4,60.4,45.7,44.6,39.5,21.2,85,50,13,30.18,30.03,8,2,10,0.00
2013-3-18,73.9,59.5,41.9,48.2,41.5,37.4,89,54,32,30.18,30.03,6,1,7,0.00
2013-3-19,77.4,58.0,46.2,50.0,45.6,41.0,93,65,36,30.18,30.07,6,1,10,0.04
2013-3-20,68.9,57.8,50.7,57.2,53.5,48.2,97,85,61,30.15,30.09,6,2,10,0.21
2013-3-21,70.7,57.6,42.3,53.6,37.3,-11.2,98,55,4,30.18,30.01,7,1,13,0.00
2013-3-22,68.9,57.5,46.4,30.2,12.4,-13.0,39,23,4,30.12,30.03,11,3,14,0.00
2013-3-23,74.8,58.0,43.2,35.6,21.8,-20.2,56,31,2,30.21,30.07,7,1,7,0.00
2013-3-24,79.2,60.9,40.5,48.2,40.0,32.0,75,48,24,30.15,29.95,6,0,6,0.00
2013-3-25,74.5,57.7,44.4,50.0,43.2,39.2,85,60,35,30.07,29.95,8,2,10,0.00
2013-3-26,78.3,60.4,45.9,50.0,45.1,41.0,87,60,33,30.07,29.95,6,1,7,0.00
2013-3-27,73.6,59.7,46.6,51.8,47.6,41.0,86,66,44,30.07,29.95,11,2,12,0.00
2013-3-28,77.5,63.5,53.8,55.4,51.5,46.4,91,67,39,30.12,30.03,6,1,8,0.04
2013-3-29,86.0,67.2,51.3,55.4,50.1,44.6,94,59,29,30.15,30.01,5,1,8,0.00
2013-3-30,81.9,63.7,53.1,55.4,51.2,46.4,91,66,37,30.09,29.98,10,3,13,0.00
2013-3-31,78.1,62.6,56.5,60.8,54.1,46.4,98,76,38,30.15,30.01,12,2,12,0.00
2013-4-1,79.0,63.5,53.1,60.8,52.8,46.4,97,71,41,30.18,30.07,8,2,10,0.00
2013-4-2,77.4,62.5,48.7,55.4,51.3,48.2,98,69,38,30.21,30.07,8,2,8,0.00
2013-4-3,82.9,64.4,48.4,57.2,51.2,46.4,94,65,35,30.18,29.98,4,1,6,0.00
2013-4-4,71.8,59.9,53.4,62.6,53.8,42.8,98,80,53,30.15,30.01,9,3,12,0.08
2013-4-5,73.0,61.7,50.4,59.0,51.6,48.2,96,72,43,30.21,30.12,12,2,12,0.00
2013-4-6,75.2,61.3,52.3,55.4,51.7,48.2,94,72,45,30.24,30.12,6,1,8,0.00
2013-4-7,72.1,60.9,51.3,55.4,49.7,44.6,92,68,46,30.18,29.86,12,3,15,0.00
2013-4-8,72.0,61.4,48.9,50.0,33.6,-9.4,91,41,4,30.03,29.77,10,4,17,0.05
2013-4-9,79.2,68.1,51.6,39.2,21.7,-20.2,47,24,2,30.12,30.03,10,2,14,0.00
2013-4-10,90.9,69.4,52.9,53.6,42.1,33.8,55,39,22,30.24,30.07,6,1,7,0.00
2013-4-11,83.1,67.8,56.3,50.0,23.7,-18.4,73,36,2,29.86,29.83,6,2,6,0.00
2013-4-12,88.7,65.2,47.5,51.8,46.5,39.2,85,56,18,29.98,29.83,8,2,8,0.00
2013-4-13,84.4,64.3,50.2,53.6,47.0,42.8,75,55,33,29.92,29.77,10,2,10,0.00
2013-4-14,82.2,62.8,46.6,46.4,37.3,-16.6,80,48,2,29.95,29.77,15,3,15,0.00
2013-4-15,72.3,62.0,45.3,48.2,43.0,32.0,90,52,32,29.95,29.80,13,2,13,0.00
2013-4-16,72.9,59.8,46.9,35.6,13.7,-14.8,50,25,3,30.18,29.95,13,2,13,0.00
2013-4-17,75.9,61.2,46.9,35.6,10.7,-20.2,48,23,2,30.30,30.18,11,2,11,0.34
2013-4-18,85.3,65.6,44.8,41.0,19.0,-20.2,49,26,2,30.33,30.18,6,1,6,0.00
2013-4-19,90.0,70.1,48.7,51.8,44.6,33.8,67,42,22,30.27,30.07,8,1,8,0.00
2013-4-20,89.4,72.5,59.4,50.0,29.7,-14.8,57,30,2,30.15,29.95,11,2,11,0.00
2013-4-21,94.5,74.7,62.2,51.8,33.3,-13.0,47,30,2,30.07,29.92,11,1,11,0.00
2013-4-22,95.2,78.1,56.8,53.6,28.6,-20.2,64,27,2,30.01,29.83,8,1,8,0.00
2013-4-23,93.2,79.4,60.4,42.8,-4.4,-20.2,45,7,2,29.98,29.83,8,2,8,0.00
2013-4-24,98.1,38.9,0.0,50.0,37.4,-9.4,78,21,2,29.95,29.77,15,2,15,0.00
2013-4-25,79.3,63.4,52.3,51.8,48.4,46.4,86,60,36,30.12,29.89,13,4,13,0.00
2013-4-26,88.7,67.6,48.7,55.4,50.3,46.4,91,57,30,30.24,30.12,8,2,8,0.00
2013-4-27,94.8,71.1,50.2,59.0,51.2,46.4,89,54,27,30.24,30.03,58,1,58,0.00
2013-4-28,97.9,74.9,53.4,59.0,50.0,19.4,80,48,7,30.07,29.86,9,1,9,0.00
2013-4-29,97.9,78.6,59.7,53.6,40.3,-7.6,72,37,2,29.92,29.71,9,1,9,0.00
2013-4-30,88.7,75.6,64.9,53.6,8.2,-20.2,65,17,2,29.86,29.77,10,2,10,0.00
2013-5-1,93.7,76.3,60.8,33.8,-7.2,-20.2,28,5,2,30.09,29.83,12,2,12,0.00
2013-5-2,98.6,77.7,58.3,37.4,13.9,-16.6,36,17,2,30.21,30.07,6,1,8,0.00
2013-5-3,99.3,78.2,56.3,50.0,28.3,-11.2,48,25,2,30.09,29.77,6,1,8,0.00
2013-5-4,96.3,76.9,57.4,48.2,26.1,-13.0,63,28,2,29.80,29.50,8,2,10,0.00
2013-5-5,85.5,67.7,55.8,51.8,48.6,46.4,78,52,30,29.83,29.59,8,4,10,0.00
2013-5-6,84.0,66.7,57.6,57.2,52.2,44.6,94,63,33,29.98,29.83,10,1,15,0.00
2013-5-7,81.0,65.3,58.1,57.2,53.0,48.2,93,66,35,30.07,29.95,12,2,12,0.00
2013-5-8,79.7,65.4,56.1,55.4,52.4,50.0,91,65,36,30.15,30.01,9,3,11,0.00
2013-5-9,86.2,66.7,52.0,57.2,52.5,48.2,91,63,37,30.18,30.03,10,2,12,0.00
2013-5-10,91.9,70.9,53.4,62.6,54.6,50.0,91,60,34,30.18,30.07,7,1,8,0.00
2013-5-11,99.5,77.7,57.9,64.4,56.3,51.8,82,51,28,30.15,30.01,6,1,6,0.00
2013-5-12,97.5,76.3,58.1,59.0,49.7,-5.8,70,43,2,30.15,29.98,10,2,12,0.00
2013-5-13,97.7,75.9,57.9,59.0,51.4,42.8,74,44,20,30.09,29.89,10,2,10,0.00
2013-5-14,93.9,74.6,58.3,59.0,52.3,44.6,79,48,28,29.95,29.86,8,2,10,0.00
2013-5-15,81.5,69.0,57.0,51.8,47.1,44.6,66,46,31,30.03,29.95,10,2,12,0.00
2013-5-16,85.1,68.0,57.0,57.2,50.9,44.6,76,56,33,30.07,29.92,10,2,14,0.00
2013-5-17,82.8,65.7,51.6,53.6,45.9,37.4,92,52,27,30.09,29.95,10,2,13,0.00
2013-5-18,89.6,71.6,50.2,53.6,47.2,30.2,90,47,13,30.15,29.98,8,2,8,0.00
2013-5-19,90.0,73.7,56.7,51.8,37.2,-13.0,84,37,2,30.15,29.95,9,2,12,0.00
2013-5-20,98.4,78.8,62.4,51.8,29.3,-9.4,66,26,2,30.03,29.89,8,2,12,0.00
2013-5-21,84.2,69.1,56.3,50.0,45.1,39.2,61,43,28,29.95,29.86,11,3,14,0.00
2013-5-22,80.1,63.8,50.7,44.6,21.3,-20.2,66,29,2,30.03,29.89,8,3,10,0.00
2013-5-23,84.2,64.9,48.4,48.2,39.9,-14.8,76,47,2,30.01,29.89,6,1,8,0.00
2013-5-24,86.2,67.4,49.5,51.8,39.9,-14.8,86,44,2,30.03,29.92,10,2,10,0.00
2013-5-25,84.0,65.9,50.2,53.6,45.6,39.2,82,50,30,30.03,29.95,11,2,11,0.00
2013-5-26,86.9,63.0,52.5,55.4,50.3,44.6,85,65,32,30.12,30.01,13,1,13,0.00
2013-5-27,73.2,62.6,53.2,57.2,51.4,46.4,91,67,44,30.12,30.03,8,2,11,0.00
2013-5-28,86.5,70.4,58.8,60.8,54.8,50.0,93,62,31,30.03,29.89,8,2,11,0.00
2013-5-29,88.0,72.0,59.7,59.0,51.9,48.2,77,51,30,29.98,29.86,11,2,13,0.00
2013-5-30,93.2,72.7,55.0,55.4,48.2,19.4,76,46,7,30.01,29.89,8,2,10,0.00
2013-5-31,98.6,77.2,54.9,55.4,35.3,-11.2,77,35,2,30.03,29.89,11,2,11,0.00
2013-6-1,104.2,84.6,57.9,57.2,33.8,-5.8,80,29,2,29.92,29.74,9,1,10,0.00
2013-6-2,102.9,81.1,60.8,59.0,50.3,39.2,69,38,12,29.77,29.59,10,2,10,0.00
2013-6-3,92.5,75.0,59.0,60.8,53.0,46.4,74,49,30,29.80,29.65,9,2,14,0.00
2013-6-4,85.1,68.8,56.7,57.2,52.6,48.2,83,59,37,29.95,29.74,11,3,12,0.00
2013-6-5,91.4,70.2,55.2,59.0,53.8,50.0,88,59,33,30.01,29.83,8,3,10,0.00
2013-6-6,98.4,73.6,55.6,64.4,55.4,51.8,90,56,29,29.95,29.77,7,2,9,0.00
2013-6-7,108.0,81.5,58.3,66.2,57.7,51.8,83,49,21,29.89,29.68,7,2,10,0.00
2013-6-8,112.6,87.6,0.0,64.4,57.6,50.0,65,39,15,29.83,29.59,14,2,14,0.00
2013-6-9,81.1,69.1,60.4,57.2,54.9,51.8,80,61,41,29.86,29.71,18,5,18,0.00
2013-6-10,81.3,67.0,58.5,55.4,52.8,48.2,87,62,40,29.98,29.80,13,4,15,0.00
2013-6-11,84.6,75.5,58.6,57.2,55.7,53.6,83,52,39,30.01,29.92,8,2,8,0.00
2013-6-12,93.4,71.0,58.6,60.8,50.6,42.8,75,51,22,29.98,29.89,13,2,13,0.00
2013-6-13,93.6,73.1,52.7,53.6,38.0,-9.4,72,39,2,30.09,29.95,10,2,10,0.00
2013-6-14,96.3,78.1,60.3,50.0,33.9,-7.6,70,30,2,29.98,29.80,10,2,10,0.00
2013-6-15,95.0,68.1,55.6,57.2,46.3,39.2,65,47,18,29.98,29.80,10,2,10,0.00
2013-6-16,96.1,76.1,55.8,55.4,51.1,46.4,73,45,23,30.03,29.95,13,2,13,0.00
2013-6-17,91.2,65.9,55.8,57.2,50.1,46.4,81,58,28,30.07,29.95,17,1,17,0.00
2013-6-18,86.7,69.1,56.7,55.4,50.8,44.6,86,55,30,30.03,29.92,16,3,16,0.00
2013-6-19,88.0,69.9,50.4,53.6,43.7,-13.0,84,46,2,30.07,29.95,10,2,10,0.00
2013-6-20,92.8,77.1,53.6,55.4,49.6,42.8,80,41,19,30.01,29.89,12,2,12,0.00
2013-6-21,95.2,76.3,55.9,55.4,41.5,-7.6,81,38,2,30.01,29.89,10,2,10,0.00
2013-6-22,99.9,79.5,57.0,57.2,43.9,-5.8,78,37,2,29.92,29.77,11,2,11,0.00
2013-6-23,84.4,68.6,60.4,60.8,56.7,48.2,85,67,42,29.86,29.77,17,3,17,0.00
2013-6-24,74.1,65.4,61.7,64.4,59.8,55.4,94,82,58,29.95,29.80,6,1,6,0.00
2013-6-25,82.6,67.6,62.6,71.6,63.7,60.8,96,87,55,30.01,29.92,10,1,10,0.00
2013-6-26,93.7,77.7,62.2,66.2,61.9,55.4,97,63,34,30.07,29.95,12,2,12,0.00
2013-6-27,103.5,82.8,62.6,64.4,59.8,41.0,90,51,15,30.09,29.95,8,2,8,0.00
2013-6-28,109.6,87.5,66.9,66.2,60.0,53.6,77,44,20,30.01,29.83,10,2,10,0.00
2013-6-29,111.2,90.8,67.8,64.4,57.7,51.8,65,36,14,29.92,29.74,10,2,10,0.00
2013-6-30,110.3,89.3,68.9,66.2,57.5,51.8,66,37,16,29.83,29.71,11,2,11,0.00
2013-7-1,111.2,88.6,67.1,66.2,56.2,3.2,73,38,2,29.83,29.74,8,1,8,0.00
2013-7-2,109.4,88.0,73.8,66.2,58.4,50.0,62,38,24,29.89,29.77,14,3,14,0.00
2013-7-3,110.7,86.3,66.9,66.2,59.6,53.6,74,44,24,29.89,29.71,12,2,12,0.00
2013-7-4,112.5,90.0,72.7,68.0,60.3,48.2,69,40,18,29.77,29.59,13,2,13,0.00
2013-7-5,91.2,77.2,64.2,57.2,51.4,42.8,65,41,30,29.77,29.62,11,3,12,0.00
2013-7-6,94.1,74.1,58.1,59.0,54.2,48.2,86,54,28,29.80,29.68,10,3,10,0.00
2013-7-7,99.7,76.7,57.9,59.0,45.5,-11.2,86,47,2,29.83,29.74,8,3,8,0.00
2013-7-8,101.5,77.6,57.0,59.0,40.5,-11.2,93,43,2,29.95,29.83,9,2,9,0.00
2013-7-9,106.5,84.1,0.0,60.8,40.0,-7.6,78,36,2,30.03,29.89,8,2,8,0.00
2013-7-10,101.1,74.3,63.0,60.8,48.8,-7.6,71,47,2,29.98,29.83,13,2,13,0.00
2013-7-11,96.1,73.2,55.4,57.2,52.1,42.8,88,52,18,29.92,29.83,10,2,10,0.00
2013-7-12,95.4,73.6,56.7,59.0,53.7,46.4,90,54,27,29.95,29.83,10,2,10,0.00
2013-7-13,101.8,78.8,58.8,57.2,41.5,-7.6,81,39,2,29.95,29.86,10,2,10,0.00
2013-7-14,99.5,70.9,60.1,59.0,50.7,42.8,73,52,17,30.01,29.83,10,2,10,0.00
2013-7-15,88.5,69.9,55.9,57.2,52.4,48.2,90,57,29,29.92,29.77,12,3,12,0.00
2013-7-16,82.8,73.1,56.5,55.4,54.0,50.0,91,53,38,30.03,29.83,14,4,14,0.00
2013-7-17,98.4,74.3,54.9,59.0,54.4,48.2,93,56,19,30.09,29.95,10,2,10,0.00
2013-7-18,102.6,78.6,56.5,60.8,50.0,-5.8,89,47,2,30.03,29.89,10,2,10,0.00
2013-7-19,103.5,79.5,59.2,60.8,53.5,46.4,83,45,17,29.95,29.74,11,2,11,0.00
2013-7-20,103.3,79.4,60.4,62.6,55.3,48.2,83,47,22,29.86,29.65,10,2,10,0.00
2013-7-21,97.5,78.3,61.9,57.2,53.1,44.6,72,45,21,29.86,29.71,13,4,13,0.00
2013-7-22,95.2,77.0,63.9,57.2,51.9,12.2,77,45,9,29.98,29.83,13,3,13,0.00
2013-7-23,96.8,78.9,67.8,57.2,50.7,44.6,53,38,21,30.01,29.89,13,2,13,0.00
2013-7-24,102.6,82.1,63.1,60.8,54.0,46.4,80,41,18,30.01,29.86,10,2,10,0.00
2013-7-25,99.7,80.6,66.0,62.6,54.5,48.2,61,42,28,29.98,29.89,11,2,11,0.00
2013-7-26,99.1,79.2,61.0,62.6,54.6,50.0,83,45,28,30.07,29.92,10,2,10,0.00
2013-7-27,96.6,74.9,58.5,60.8,55.8,51.8,91,54,29,29.98,29.80,10,2,10,0.00
2013-7-28,92.5,73.0,58.1,62.6,55.0,48.2,92,57,30,29.89,29.74,11,3,11,0.00
2013-7-29,86.2,68.5,56.7,57.2,53.5,50.0,90,61,34,29.98,29.80,12,3,12,0.00
2013-7-30,94.1,71.6,55.6,59.0,54.4,44.6,92,59,20,30.12,29.95,11,3,11,0.00
2013-7-31,91.2,71.8,56.7,57.2,52.5,46.4,92,54,29,30.09,29.95,12,2,12,0.00
2013-8-1,90.9,72.4,56.7,55.4,49.8,42.8,77,48,20,30.07,29.92,12,2,12,0.00
2013-8-2,98.2,80.5,57.2,59.0,50.2,42.8,90,40,18,30.01,29.83,9,2,9,0.00
2013-8-3,95.5,74.0,57.0,59.0,52.8,46.4,88,51,24,29.98,29.86,10,2,10,0.00
2013-8-4,94.5,71.7,55.8,59.0,53.8,50.0,91,57,25,30.01,29.89,10,3,10,0.00
2013-8-5,93.7,71.7,56.8,57.2,53.2,44.6,92,57,21,30.03,29.89,10,3,10,0.00
2013-8-6,86.4,71.7,55.0,57.2,54.1,50.0,92,58,35,30.03,29.95,10,4,10,0.00
2013-8-7,82.8,68.2,60.4,57.2,55.1,51.8,84,64,40,30.09,30.01,13,4,13,0.00
2013-8-8,89.2,70.5,57.0,57.2,54.4,48.2,93,62,28,30.07,29.89,11,3,12,0.00
2013-8-9,88.3,69.7,55.8,59.0,54.9,50.0,92,63,33,29.98,29.89,11,2,11,0.00
2013-8-10,90.7,71.0,58.6,59.0,55.9,51.8,91,63,32,30.03,29.95,12,3,12,0.00
2013-8-11,95.7,77.5,57.4,60.8,55.3,48.2,93,52,26,30.03,29.89,9,2,11,0.00
2013-8-12,97.2,76.0,57.9,60.8,51.2,-7.6,89,48,2,30.01,29.89,8,2,8,0.00
2013-8-13,103.1,79.0,58.8,59.0,45.0,-5.8,79,40,2,30.01,29.86,9,1,9,0.00
2013-8-14,100.2,72.1,60.4,59.0,50.9,44.6,73,50,18,29.98,29.83,9,1,11,0.00
2013-8-15,99.9,78.9,61.5,62.6,59.1,55.4,85,55,26,29.98,29.86,11,2,11,0.00
2013-8-16,102.4,80.4,63.1,66.2,58.7,48.2,92,53,24,29.98,29.89,11,2,11,0.00
2013-8-17,97.3,77.4,63.1,60.8,55.2,48.2,83,48,29,29.98,29.83,12,2,12,0.00
2013-8-18,106.2,83.5,63.1,64.4,58.9,53.6,79,47,22,29.92,29.74,8,1,8,0.00
2013-8-19,107.4,84.6,70.5,66.2,58.4,48.2,70,44,15,29.92,29.71,10,2,10,0.00
2013-8-20,98.1,78.5,65.5,60.8,56.3,51.8,77,48,28,29.89,29.77,13,3,13,0.00
2013-8-21,93.4,74.2,61.0,59.0,54.4,48.2,86,53,24,29.95,29.83,11,2,11,0.00
2013-8-22,88.7,71.4,57.6,57.2,53.7,48.2,88,56,31,29.95,29.83,11,2,11,0.00
2013-8-23,94.5,72.7,55.9,59.0,54.3,50.0,94,57,27,29.92,29.77,9,2,9,0.00
2013-8-24,93.7,74.4,59.5,57.2,54.3,51.8,76,52,28,29.89,29.80,14,2,14,0.00
2013-8-25,94.5,75.4,62.2,66.2,59.5,53.6,90,62,32,29.95,29.83,13,2,13,0.00
2013-8-26,94.1,74.3,60.1,60.8,55.4,48.2,91,57,25,30.03,29.89,10,2,10,0.00
2013-8-27,98.4,76.0,57.7,60.8,53.1,44.6,85,50,19,29.92,29.77,10,2,10,0.00
2013-8-28,97.7,76.6,60.4,60.8,57.7,51.8,92,56,23,29.95,29.83,9,2,9,0.00
2013-8-29,96.3,77.2,61.3,64.4,59.3,55.4,93,59,27,30.03,29.92,10,1,10,0.00
2013-8-30,102.0,80.0,59.4,66.2,57.2,44.6,94,53,15,30.03,29.89,7,1,8,0.00
2013-8-31,98.1,78.5,63.5,60.8,53.3,46.4,77,45,18,29.98,29.83,13,2,13,0.00
2013-9-1,96.3,76.3,62.8,59.0,54.9,48.2,73,50,21,29.95,29.83,11,2,11,0.00
2013-9-2,85.8,73.3,68.0,71.6,61.0,57.2,80,65,50,29.98,29.86,6,1,6,0.00
2013-9-3,91.2,74.9,62.4,59.0,54.4,48.2,80,53,24,29.98,29.89,11,2,11,0.00
2013-9-4,92.7,73.7,60.3,59.0,54.4,46.4,91,55,23,30.07,29.89,10,2,10,0.00
2013-9-5,91.4,73.0,57.9,59.0,54.5,50.0,88,56,26,30.03,29.89,10,2,10,0.00
2013-9-6,97.5,75.6,56.3,60.8,44.8,-9.4,92,45,2,30.01,29.83,8,0,8,0.00
2013-9-7,103.5,80.4,57.7,59.0,39.8,-5.8,74,35,2,29.92,29.77,8,0,8,0.00
2013-9-8,104.4,81.6,61.5,59.0,42.6,-9.4,74,36,2,29.86,29.71,10,1,10,0.00
2013-9-9,104.7,81.7,62.2,60.8,46.1,-0.4,73,38,2,29.80,29.62,8,1,8,0.00
2013-9-10,90.3,73.2,61.9,60.8,55.8,46.4,84,57,35,29.89,29.65,14,3,14,0.00
2013-9-11,85.1,70.2,62.1,59.0,57.6,53.6,88,67,40,29.98,29.86,11,3,11,0.00
2013-9-12,93.0,73.2,59.4,64.4,58.8,55.4,94,65,32,29.98,29.83,13,2,13,0.00
2013-9-13,95.4,74.2,59.9,62.6,56.7,50.0,93,59,29,29.92,29.71,8,2,8,0.00
2013-9-14,89.8,71.8,59.4,59.0,55.0,50.0,89,58,33,29.80,29.68,10,2,10,0.00
2013-9-15,91.2,71.1,56.7,59.0,54.6,50.0,89,60,29,29.89,29.74,12,2,12,0.00
2013-9-16,91.9,72.8,58.1,64.4,55.9,50.0,96,60,27,29.92,29.74,7,1,10,0.00
2013-9-17,88.7,70.8,57.2,57.2,52.7,48.2,86,56,29,29.86,29.80,10,2,10,0.00
2013-9-18,89.8,72.5,59.2,53.6,39.9,-13.0,77,39,2,29.95,29.80,13,2,13,0.00
2013-9-19,97.2,73.7,53.4,51.8,36.8,-9.4,70,37,2,29.89,29.71,6,0,6,0.00
2013-9-20,84.6,69.3,57.0,59.0,51.0,39.2,80,53,37,29.86,29.74,14,3,14,0.00
2013-9-21,73.6,63.0,55.9,64.4,57.9,51.8,95,84,48,29.92,29.83,11,1,11,0.00
2013-9-22,80.2,64.8,53.6,60.8,54.2,50.0,97,71,39,30.03,29.89,8,1,8,0.00
2013-9-23,89.4,69.6,53.8,59.0,54.1,48.2,95,63,29,30.03,29.92,6,1,6,0.00
2013-9-24,86.2,68.3,58.5,59.0,53.1,46.4,87,62,31,29.98,29.83,16,2,16,0.00
2013-9-25,79.0,64.0,49.6,50.0,44.7,35.6,90,53,21,29.95,29.80,8,2,8,0.00
2013-9-26,79.3,65.6,54.1,42.8,37.4,32.0,52,36,20,29.98,29.83,14,2,14,0.00
2013-9-27,83.7,65.3,52.5,44.6,35.7,-18.4,52,37,2,30.15,29.98,8,1,8,0.00
2013-9-28,89.6,68.3,48.7,53.6,35.1,-14.8,72,37,2,30.12,29.98,7,1,7,0.00
2013-9-29,81.7,68.2,56.8,59.0,55.7,51.8,88,66,41,30.15,30.03,13,3,13,0.00
2013-9-30,83.7,68.5,58.6,62.6,58.9,55.4,93,73,43,30.09,29.98,11,1,11,0.00
2013-10-1,83.1,66.2,50.7,55.4,47.5,41.0,81,54,27,30.07,29.92,10,1,10,0.00
2013-10-2,84.6,66.8,52.9,50.0,45.0,41.0,75,48,24,30.03,29.92,8,2,8,0.00
2013-10-3,77.4,66.0,55.6,41.0,19.9,-20.2,55,25,2,30.07,29.92,14,2,14,0.00
2013-10-4,86.2,68.9,56.5,35.6,14.3,-20.2,37,18,2,30.12,30.01,10,2,10,0.00
2013-10-5,88.9,65.7,47.1,42.8,19.8,-20.2,54,29,2,30.27,30.12,5,0,5,0.00
2013-10-6,89.4,65.0,46.0,48.2,33.2,-14.8,73,40,2,30.18,30.01,4,0,4,0.00
2013-10-7,89.1,68.0,49.6,48.2,25.3,-16.6,75,32,2,30.03,29.83,7,0,7,0.00
2013-10-8,84.2,64.7,51.6,42.8,37.0,-14.8,65,40,2,29.92,29.68,8,1,8,0.00
2013-10-9,79.3,66.5,52.3,44.6,39.5,32.0,69,38,24,29.77,29.59,10,2,10,0.00
2013-10-10,80.2,62.7,50.9,48.2,42.9,33.8,75,50,29,30.03,29.77,6,1,6,0.00
2013-10-11,79.9,61.9,47.1,51.8,45.0,41.0,88,57,31,30.12,29.95,8,1,8,0.00
2013-10-12,79.3,61.5,47.7,53.6,45.0,39.2,92,58,30,30.03,29.89,8,1,8,0.00
2013-10-13,79.2,62.6,50.0,48.2,41.4,35.6,78,49,23,30.07,29.89,12,1,12,0.00
2013-10-14,81.9,64.0,46.4,46.4,37.4,10.4,76,41,7,30.15,30.01,7,1,7,0.00
2013-10-15,52.9,49.0,47.3,39.2,35.8,33.8,67,59,48,30.07,30.03,2,0,2,0.00
2013-10-16,84.2,62.6,45.9,46.4,33.4,10.4,73,38,6,30.15,30.01,4,0,4,0.00
2013-10-17,85.6,63.1,47.1,46.4,34.6,-16.6,78,45,2,30.12,29.95,7,0,7,0.00
2013-10-18,88.0,63.1,46.0,48.2,40.1,33.8,82,45,19,30.09,29.98,4,0,4,0.00
2013-10-19,88.5,68.7,47.5,51.8,39.7,19.4,87,40,8,30.12,30.01,4,0,4,0.00
2013-10-20,87.6,63.5,46.0,48.2,40.7,35.6,78,47,20,30.07,29.89,6,0,6,0.00
2013-10-21,85.8,64.2,48.6,51.8,44.4,37.4,89,51,27,30.07,29.89,4,0,4,0.00
2013-10-22,88.2,64.4,48.2,55.4,45.7,39.2,93,56,20,30.03,29.89,7,0,7,0.00
2013-10-23,86.4,64.1,48.4,50.0,45.3,33.8,90,56,19,29.98,29.86,6,1,6,0.00
2013-10-24,72.7,57.7,48.4,51.8,46.5,42.8,94,68,43,30.12,29.95,10,1,10,0.00
2013-10-25,77.4,59.5,45.1,53.6,46.2,41.0,95,65,34,30.21,30.07,5,0,5,0.00
2013-10-26,84.2,61.1,45.0,51.8,44.7,39.2,90,58,28,30.21,30.01,6,0,6,0.00
2013-10-27,73.4,57.0,45.3,50.0,44.5,39.2,84,64,41,30.03,29.59,15,2,15,0.00
2013-10-28,72.0,59.3,47.8,50.0,43.3,35.6,88,58,35,29.89,29.62,11,1,11,0.00
2013-10-29,67.8,57.3,50.0,50.0,43.5,37.4,77,61,42,30.07,29.86,5,1,6,0.00
2013-10-30,72.3,55.4,42.1,50.0,42.7,37.4,95,65,36,30.18,30.07,7,0,7,0.00
2013-10-31,76.3,55.7,41.9,48.2,41.8,37.4,87,62,34,30.24,30.09,4,0,4,0.00
2013-11-1,79.7,58.7,42.4,48.2,41.9,37.4,90,57,31,30.21,30.03,5,0,5,0.00
2013-11-2,77.4,62.3,42.4,50.0,43.6,33.8,76,52,34,30.07,29.89,7,1,7,0.00
2013-11-3,65.8,58.0,51.4,42.8,29.4,24.8,65,34,23,30.07,29.95,8,2,10,0.00
2013-11-4,70.7,58.3,45.3,33.8,23.0,-14.8,44,29,3,30.09,29.92,10,2,10,0.00
2013-11-5,72.9,55.5,39.7,39.2,29.6,23.0,57,38,23,30.27,30.07,4,0,4,0.00
2013-11-6,73.2,56.4,43.3,42.8,35.0,26.6,65,45,29,30.33,30.18,4,0,4,0.00
2013-11-7,77.4,59.5,46.4,44.6,37.2,33.8,69,45,25,30.21,30.07,5,0,5,0.00
2013-11-8,76.8,57.4,42.4,48.2,40.5,33.8,81,54,34,30.12,29.95,5,0,5,0.00
2013-11-9,74.5,56.7,43.0,46.4,40.4,37.4,81,57,33,30.09,30.01,3,0,3,0.00
2013-11-10,74.3,54.1,42.1,46.4,40.4,35.6,82,62,34,30.18,30.07,4,0,4,0.00
2013-11-11,71.1,49.2,41.4,50.0,43.1,37.4,98,81,35,30.21,30.09,5,0,5,0.00
2013-11-12,73.2,59.9,49.5,46.4,42.2,37.4,71,53,33,30.30,30.18,6,0,6,0.00
2013-11-13,77.4,54.1,43.2,50.0,41.7,37.4,92,66,32,30.27,30.07,6,0,6,0.00
2013-11-14,68.9,55.1,46.6,51.8,45.4,41.0,87,70,46,30.12,29.83,6,0,6,0.00
2013-11-15,68.2,53.7,41.7,48.2,37.6,28.4,97,60,24,29.89,29.71,12,1,12,0.00
2013-11-16,45.1,44.4,43.9,35.6,35.1,33.8,71,69,67,29.80,29.77,2,0,2,0.00
2013-11-17,63.5,49.4,38.8,48.2,41.3,33.8,93,74,50,30.12,29.95,6,1,6,0.00
2013-11-18,62.2,51.2,39.7,51.8,43.4,37.4,96,75,49,30.18,30.09,8,1,8,0.00
2013-11-19,68.2,56.8,50.5,55.4,49.2,44.6,96,75,51,30.15,29.98,6,0,6,0.00
2013-11-20,59.5,56.3,53.6,57.2,55.6,53.6,98,96,87,29.98,29.86,8,1,8,0.00
2013-11-21,61.0,55.0,49.1,55.4,36.1,24.8,98,52,33,30.03,29.89,14,3,14,0.00
2013-11-22,70.3,54.9,42.6,41.0,17.3,-14.8,85,34,3,30.07,29.95,10,2,10,0.00
2013-11-23,63.5,49.1,38.8,50.0,42.1,37.4,96,77,49,30.15,30.01,5,0,5,0.00
2013-11-24,64.0,53.6,38.7,48.2,41.0,37.4,95,64,49,30.30,30.12,4,0,4,0.00
2013-11-25,63.5,48.2,38.1,48.2,39.8,37.4,97,75,45,30.42,30.30,4,0,4,0.00
2013-11-26,63.0,45.0,39.0,46.4,39.5,37.4,95,82,46,30.36,30.09,4,0,4,0.00
2013-11-27,64.9,52.9,42.6,48.2,41.7,37.4,93,67,46,30.12,29.89,4,0,4,0.00
2013-11-28,66.9,51.6,42.4,48.2,41.7,39.2,92,71,40,30.01,29.89,4,0,4,0.00
2013-11-29,67.3,49.6,39.9,46.4,39.4,35.6,93,69,42,30.24,30.07,4,0,4,0.00
2013-11-30,66.0,50.0,41.0,48.2,40.0,35.6,93,70,40,30.33,30.18,6,0,6,0.00
2013-12-1,64.6,50.4,38.7,48.2,40.9,35.6,95,71,45,30.39,30.24,4,0,4,0.00
2013-12-2,66.6,51.9,39.2,51.8,43.6,37.4,97,75,46,30.27,29.95,7,1,7,0.00
2013-12-3,55.9,51.9,41.5,53.6,29.6,-9.4,96,47,6,29.98,29.83,13,2,13,0.00
2013-12-4,48.2,39.7,30.2,21.2,15.8,3.2,52,38,16,30.12,29.95,9,2,9,0.00
2013-12-5,48.6,36.2,27.0,21.2,14.5,8.6,52,42,27,30.24,30.09,6,0,6,0.00
2013-12-6,49.1,39.0,27.7,35.6,24.4,10.4,85,57,44,30.27,29.95,13,2,13,0.00
2013-12-7,47.7,39.2,30.4,42.8,29.7,23.0,97,70,44,30.27,29.95,13,1,13,0.00
2013-12-8,42.6,34.2,29.1,26.6,21.9,15.8,89,63,42,30.39,30.27,6,1,6,0.00
2013-12-9,47.1,33.9,23.9,28.4,21.6,14.0,83,62,45,30.51,30.36,6,0,6,0.00
2013-12-10,50.2,36.8,26.2,32.0,24.6,21.2,91,64,39,30.48,30.24,4,0,4,0.00
2013-12-11,54.3,38.9,28.0,35.6,27.3,23.0,90,65,41,30.33,30.24,5,0,5,0.00
2013-12-12,56.1,37.1,28.0,37.4,28.6,23.0,94,74,43,30.33,30.18,5,0,5,0.00
2013-12-13,58.1,42.0,30.0,39.2,30.7,24.8,96,66,38,30.42,30.24,6,1,6,0.00
2013-12-14,58.1,42.3,31.3,37.4,31.6,24.8,89,67,42,30.48,30.39,5,0,5,0.00
2013-12-15,58.5,41.7,30.0,41.0,32.2,26.6,96,70,44,30.45,30.30,4,0,4,0.00
2013-12-16,59.2,42.8,32.5,41.0,34.2,30.2,94,72,46,30.33,30.18,3,0,3,0.00
2013-12-17,62.6,46.4,35.4,44.6,37.6,33.8,94,72,44,30.27,30.07,3,0,3,0.00
2013-12-18,61.9,51.0,39.7,46.4,40.4,37.4,93,68,45,30.09,29.74,6,1,6,0.00
2013-12-19,59.9,51.2,39.6,42.8,30.5,15.8,97,50,25,29.95,29.71,12,2,12,0.00
2013-12-20,59.0,46.0,32.9,32.0,15.5,-9.4,68,33,6,30.07,29.95,9,1,9,0.00
2013-12-21,57.9,44.3,34.5,37.4,31.0,24.8,87,60,37,30.15,30.01,6,0,6,0.00
2013-12-22,59.0,45.8,33.4,39.2,33.1,28.4,88,62,43,30.36,30.12,4,0,4,0.00
2013-12-23,62.1,46.9,34.5,42.8,34.8,30.2,92,64,41,30.45,30.33,5,0,5,0.00
2013-12-24,60.8,45.6,35.6,42.8,35.6,32.0,91,69,45,30.39,30.24,4,0,4,0.00
2013-12-25,62.6,45.6,34.0,44.6,36.6,32.0,95,72,44,30.39,30.24,5,0,5,0.00
2013-12-26,62.2,44.5,32.4,42.8,34.3,30.2,97,69,39,30.33,30.21,3,0,3,0.00
2013-12-27,59.9,44.2,33.4,39.2,33.2,30.2,89,66,43,30.30,30.15,3,0,3,0.00
2013-12-28,66.7,45.9,30.9,41.0,30.2,23.0,96,59,26,30.18,30.03,5,0,6,0.00
2013-12-29,60.3,44.2,32.0,39.2,31.7,23.0,78,62,43,30.27,30.12,5,0,6,0.00
2013-12-30,61.2,45.0,32.7,41.0,32.9,28.4,96,64,40,30.33,30.24,4,0,4,0.00
2013-12-31,62.4,45.5,35.8,41.0,32.3,24.8,87,61,35,30.33,30.18,4,0,4,0.00
2014-1-1,61.0,44.5,33.1,37.4,31.2,26.6,83,61,38,30.27,30.15,4,0,4,0.00
2014-1-2,63.1,45.9,34.0,41.0,32.7,28.4,91,61,36,30.27,30.07,4,0,4,0.00